Change the Weather History Date:

Tuesday, May 21, 2013

  Actual Average Record
Temperature  
Mean Temperature 62 °F -  
Max Temperature 70 °F 78 °F 94 °F (1956)
Min Temperature 55 °F 53 °F 37 °F (1967)
Degree Days  
Heating Degree Days 2    
Growing Degree Days 12 (Base 50)    
Moisture  
Dew Point 49 °F    
Average Humidity 64    
Maximum Humidity 87    
Minimum Humidity 45    
Precipitation  
Precipitation 0.00 in - - ()
Sea Level Pressure  
Sea Level Pressure 29.70 in    
Wind  
Wind Speed 12 mph (West)    
Max Wind Speed 21 mph    
Max Gust Speed 26 mph    
Visibility 10 miles    
Events      
Averages and records for this station are not official NWS values.
T = Trace of Precipitation, MM = Missing Value Source: NWS Daily Summary

Daily Weather History Graph

Daily Weather History Graph

Search for Another Location

Airport or City:

Trip Planner

Search our weather history database for the weather conditions in past years. The results will help you decide how hot, cold, wet, or windy it might be!

Date:

Astronomy

May. 21, 2013 Rise Set
Actual Time 6:01 AM CDT 8:36 PM CDT
Civil Twilight 5:30 AM CDT 9:08 PM CDT
Nautical Twilight 4:51 AM CDT 9:47 PM CDT
Astronomical Twilight 4:07 AM CDT 10:31 PM CDT
Moon 4:51 PM CDT (5/21) 3:30 AM CDT (5/21)
Length of Visible Light 15h 37m
Length of Day
14h 35m
Waxing Gibbous, 84% of the Moon is Illuminated
May 21
Waxing Gibbous
May 24
Full
May 31
Last Quarter
Jun 8
New
Jun 16
First Quarter

Hourly Weather History & Observations

Time (CDT) Temp. Dew Point Humidity Pressure Visibility Wind Dir Wind Speed Gust Speed Precip Events Conditions
12:53 AM 61.0 °F 48.9 °F 64% 29.66 in 10.0 mi WSW 11.5 mph 20.7 mph N/A   Clear
1:53 AM 59.0 °F 50.0 °F 72% 29.65 in 10.0 mi WSW 10.4 mph - N/A   Clear
2:53 AM 59.0 °F 51.1 °F 75% 29.66 in 10.0 mi West 10.4 mph - N/A   Mostly Cloudy
3:53 AM 57.9 °F 52.0 °F 81% 29.65 in 10.0 mi West 10.4 mph - N/A   Mostly Cloudy
4:14 AM 57.2 °F 51.8 °F 82% 29.67 in 10.0 mi WSW 9.2 mph - N/A   Scattered Clouds
4:53 AM 57.0 °F 52.0 °F 83% 29.67 in 10.0 mi WSW 10.4 mph - N/A   Clear
5:53 AM 55.9 °F 52.0 °F 87% 29.69 in 10.0 mi WSW 6.9 mph - N/A   Clear
6:53 AM 57.0 °F 52.0 °F 83% 29.72 in 10.0 mi WSW 11.5 mph - N/A   Clear
7:53 AM 59.0 °F 51.1 °F 75% 29.73 in 10.0 mi West 11.5 mph - N/A   Clear
8:53 AM 62.1 °F 50.0 °F 65% 29.72 in 10.0 mi West 16.1 mph 23.0 mph N/A   Clear
9:53 AM 64.0 °F 50.0 °F 60% 29.73 in 10.0 mi WSW 13.8 mph - N/A   Partly Cloudy
10:53 AM 64.9 °F 50.0 °F 58% 29.73 in 10.0 mi WSW 15.0 mph - N/A   Clear
11:53 AM 66.0 °F 50.0 °F 56% 29.73 in 10.0 mi SW 17.3 mph 21.9 mph N/A   Mostly Cloudy
12:53 PM 66.9 °F 48.9 °F 52% 29.72 in 10.0 mi WSW 13.8 mph 24.2 mph N/A   Scattered Clouds
1:53 PM 66.9 °F 48.9 °F 52% 29.73 in 10.0 mi WSW 13.8 mph 25.3 mph N/A   Mostly Cloudy
2:53 PM 70.0 °F 48.0 °F 46% 29.72 in 10.0 mi West 19.6 mph 25.3 mph N/A   Mostly Cloudy
3:53 PM 68.0 °F 48.0 °F 49% 29.73 in 10.0 mi WSW 20.7 mph 26.5 mph N/A   Scattered Clouds
4:53 PM 69.1 °F 46.9 °F 45% 29.70 in 10.0 mi West 18.4 mph 26.5 mph N/A   Partly Cloudy
5:53 PM 68.0 °F 46.9 °F 47% 29.69 in 10.0 mi West 17.3 mph 24.2 mph N/A   Partly Cloudy
6:53 PM 66.0 °F 46.0 °F 48% 29.68 in 10.0 mi West 11.5 mph - N/A   Clear
7:53 PM 64.9 °F 46.9 °F 52% 29.70 in 10.0 mi WNW 11.5 mph - N/A   Partly Cloudy
8:53 PM 62.1 °F 48.0 °F 60% 29.70 in 10.0 mi WNW 5.8 mph - N/A   Clear
9:53 PM 60.1 °F 48.0 °F 64% 29.70 in 10.0 mi WNW 6.9 mph - N/A   Clear
10:53 PM 60.1 °F 48.9 °F 67% 29.72 in 10.0 mi WNW 5.8 mph - N/A   Overcast
11:53 PM 60.1 °F 50.0 °F 69% 29.72 in 10.0 mi West 5.8 mph - N/A   Overcast